C/1998 M5 (LINEAR) 

Epoch 1999 Jan. 22.0 TT = JDT 2451200.5  

T 1999 Jan. 24.57113 TT                                 Nakano

q   1.7422812            (2000.0)            P               Q

z  +0.0022724      Peri.  101.28440     -0.11550965     -0.88854704

 +/-0.0000004      Node   333.37675     -0.19729133     +0.45861561

e   0.9960409      Incl.   82.22885     +0.97351613     -0.01248554

From 1145 observations 1998 June 30-2000 May 8, mean residual 0".66.

Residuals in seconds of arc 

1998/                     980825 355  0.3+  0.2+    981110 963  1.0-  1.2-  

980630 704  0.0   1.0-    980825 355  0.1-  0.1+    981111 897  0.1-  0.8-  

980630 704 (2.2+  1.0+)   980825 355  0.3+  0.1-    981111 897  0.3+  0.8-  

980630 704  1.6+  0.7-    980825 504  0.4+  0.1-    981111 143  0.2+  0.7-  

980630 704  1.9+  1.5-    980825 504  0.1-  0.3+    981111 143  0.1+  0.6-  

980630 704 (3.3-  0.5+)   980825 504  0.2-  0.2+    981111 143  0.3+  0.7-  

980701 557  0.0   0.1+    980825 504  0.3+  0.1-    981113 540  0.1-  0.7-  

980701 557  0.0   0.1+    980825 504  0.1+  0.2-    981113 540  0.1+  0.3-  

980701 557  0.2-  0.2+    980825 504  0.2-  0.2+    981113 540  0.2-  0.7-  

980701 557  0.1-  0.0     980825 504  0.2+  0.2+    981114 402  0.1-  0.9-  

980701 120  1.6-  0.8-    980825 143  0.0   0.3+    981114 402  0.2-  0.8-  

980701 120  1.5-  0.5-    980825 143  0.1+  0.4+    981114 402  0.2-  0.8-  

980701 120  1.2-  0.1-    980825 143  0.1+  0.3+    981115 867  0.1+  0.7-  

980701 120  1.6-  0.6-    980826 491  1.6-  1.5+    981115 867  0.1+  0.8-  

980701 758  0.6+  1.5+    980826 491 (1.8-  3.0+)   981115 867  0.0   0.7-  

980701 758 (2.2-  0.6+)   980826 491  0.5+  1.0+    981115 351  1.1+  0.7-  

980701 758  0.9-  0.3-    980826 758  0.6+  1.0-    981115 351  0.8-  0.9-  

980701 758  0.9-  0.2+    980826 758  0.4+  0.7-    981115 351  0.7+  0.4-  

980701 758  0.5-  0.1-    980826 372  0.7-  0.1-    981116 963  0.6+  0.1-  

980701 758  0.2-  1.7-    980826 491  1.3+  0.6-    981118 491  0.5-  0.7-  

980701 758  0.8-  0.1-    980826 491  1.9+  0.9-    981118 491  1.0+  1.3-  

980701 758  0.3+  0.5-    980826 491  0.9+  0.7+    981118 491  1.0+  0.2+  

980701 758  0.9-  0.1+    980827 758  0.5+  0.3-    981118 491 (1.3+  2.1-) 

980701 750  0.8-  0.2+    980827 758  0.5-  0.2-    981118 491  0.5-  0.5-  

980701 750  0.1+  0.5+    980827 758  0.2+  1.8-    981122 504  0.5+  1.0-  

980701 750  0.1-  0.6+    980827 670  1.0+  0.1-    981123 360  0.0   0.9-  

980701 750  1.3-  0.7+    980827 670  0.2+  0.4-    981123 360  0.1-  0.9-  

980701 670  1.5-  0.1+    980827 670  0.7+  0.5-    981124 372  0.7-  0.5+  

980701 670  0.3+  0.2+    980827 372  0.7+  0.1+    981125 046  0.2-  0.7-  

980701 670  0.4-  0.1+    980829 504  0.5+  0.3-    981125 046  0.1-  0.7-  

980701 709  0.6+  0.0     980829 504  0.8+  0.5-    981125 046  0.2-  0.8-  

980701 709  0.2+  0.4+    980829 504  1.0+  0.3-    981126 402  0.1-  0.8-  

980701 709  0.2+  0.1+    980829 504  1.1+  0.2-    981126 402  0.1-  0.9-  

980701 734  0.1-  0.1-    980829 504  0.9+  0.1-    981126 402  0.1-  0.9-  

980701 734  0.1-  0.4-    980829 504  0.8+  0.0     981126 351  0.3-  0.7-  

980701 734  0.3+  0.2-    980829 504  0.4+  0.1-    981126 351  0.4-  0.3-  

980701 709  0.0   0.1+    980829 504  0.6+  0.5-    981126 351  0.1+  0.1+  

980701 734  0.1-  0.3-    980829 504  0.4+  0.6-    981128 750  0.2+  0.8-  

980701 709  0.2-  0.0     980829 504  0.8+  0.6-    981128 750  0.0   0.8-  

980701 709  0.6+  0.7+    980830 143  0.4+  0.4-    981128 897  0.3-  1.0-  

980701 426  0.1+  0.3+    980830 143  0.5-  0.3-    981128 897  0.2-  1.0-  

980701 426  0.2+  0.1+    980830 143  0.1-  0.3-    981203 046  0.2-  1.0-  

980701 426  0.4+  0.1+    980831 046  0.1+  0.0     981203 046  0.2-  0.9-  

980701 426  0.2+  0.2+    980831 046  0.1+  0.1-    981203 046  0.3-  0.9-  

980702 758  1.7-  1.6+    980831 046  0.0   0.2-    981205 351  1.4+  0.8-  

980702 758  0.4-  0.3-    980902 372  0.3+  1.1+    981205 351  0.4+  0.3-  

980702 758  0.0   0.3+    980904 402  0.2-  0.4+    981205 351 (0.9+  2.2-) 

980702 713 (2.0-  0.7+)   980904 402  0.1-  0.3+    981206 504  0.7-  1.1-  

980702 713  0.9-  0.4-    980904 402  0.1-  0.2+    981206 504  0.1-  1.0-  

980702 713  0.1-  0.5+    980904 118  0.4-  0.5+    981207 476 (1.3+  2.1+) 

980702 713  0.2+  0.3+    980904 118  0.0   0.2+    981207 476 (2.4+  1.3+) 

980702 713  0.2+  1.1+    980906 587  0.9+  1.2+    981207 476 (2.2+  1.4+) 

980702 658  0.5-  0.2+    980906 587  1.1+  1.0+    981207 476 (3.4+  1.1+) 

980702 658  0.5-  0.1+    980906 504  0.5+  1.8+    981211 372  0.1-  0.7-  

980702 658  0.5-  0.2+    980906 504  0.4+  1.3+    981217 402  0.1-  1.3-  

980702 897  0.4-  0.4+    980906 504  0.7+  1.6+    981217 402  0.1-  1.5-  

980702 897  0.5-  0.2+    980906 504  0.8+  1.9+    981217 402  0.2-  1.4-  

980702 897  0.1+  0.5+    980906 504  0.4+  1.8+    981217 605  0.5+  1.1-  

980702 897  0.3-  0.4+    980907 372  0.6-  1.9+    981217 605  0.5+  0.5-  

980702 355  0.1-  0.1+    980907 372 (0.4+  2.4+)   981217 605  0.2-  0.1-  

980702 355  0.1-  0.7+    980907 057 (1.7+  2.0-)   981220 605  0.5+  0.4-  

980702 355  0.2-  0.6+    980907 057  0.0   1.1+    981223 402  0.1+  0.0   

980702 402  0.1+  0.2+    980907 057  0.5-  0.3-    981223 402  0.4+  0.1-  

980702 402  0.2+  0.2+    980907 057  1.8+  1.4+    981223 402  0.3+  0.3-  

980702 402  0.2+  0.2+    980907 057  1.0-  0.1-    981225 351  0.2-  0.2+  

980702 422  0.5-  0.1-    980907 057  1.7+  1.0-    981225 351  0.1+  0.4-  

980702 422  0.2-  0.2+    980907 046  0.0   1.5+    981225 351  0.4+  0.4-  

980702 422  0.3-  0.1+    980907 046  0.3+  1.2+    981230 897  0.2+  0.2-  

980702 422  0.4-  0.1+    980907 057  0.4+  0.3+    981230 897  0.1-  0.6-  

980702 360  0.1+  0.2+    980907 046  0.1+  0.9+    981230 613  0.8-  0.4-  

980702 360  0.0   0.1+    980907 057  0.3-  0.8-    981230 613  0.2+  0.6-  

980702 360  0.0   0.1+    980907 057  0.6-  0.4+    981230 613  0.3-  0.5-  

980702 620 (0.8-  3.1-)   980907 057  1.1+  1.0-    1999/                   

980702 620  1.0-  0.8-    980907 057  0.3-  0.1+    990101 351  0.3+  0.4+  

980702 620  1.1+  0.2+    980907 057 (2.6-  1.9+)   990101 351  0.4-  1.2-  

980702 620  0.8+  0.9-    980908 897  0.3-  1.6+    990101 351  0.8-  0.1+  

980702 046  0.1+  0.2+    980908 897  0.4-  1.6+    990105 402  0.3-  0.5-  

980702 046  0.2+  0.2+    980908 897  0.6-  1.9+    990105 402  0.5-  0.7-  

980702 046  0.0   0.0     980908 355  0.1-  1.2+    990105 402  0.6-  0.8-  

980702 046  0.4+  0.4+    980908 355  0.3-  0.9+    990117 057  0.2+  0.6+  

980702 620 (1.2+  2.0+)   980908 355  0.4-  1.4+    990117 057  0.0   0.3+  

980703 620  0.8-  1.3+    980908 402  0.3-  1.6+    990117 057  1.1-  0.4+  

980703 752  0.4-  0.7+    980908 402  0.1-  1.4+    990117 057  0.3-  1.1+  

980703 752  0.3-  0.6+    980908 402  0.2-  1.6+    990117 057  1.3+  0.4+  

980703 752  0.4-  0.6+    980909 360  0.1-  1.3+    990117 057 (2.3+  2.2+) 

980703 752  0.3-  0.5+    980909 360  0.1-  1.3+    990118 613  0.3-  0.0   

980703 752  0.4-  1.0+    980909 352  0.1+  0.5+    990118 613  0.5-  0.5-  

980703 752  0.0   0.6+    980909 352  0.2+  0.7+    990121 046  0.0   0.4-  

980703 752  0.0   0.3+    980909 352  0.1-  0.9+    990121 046  0.4-  0.5-  

980703 367  0.6+  0.5+    980909 610  0.5+  1.4+    990121 046  0.1+  0.1-  

980703 367  0.3+  0.6+    980909 610  0.5+  1.2+    990122 351  0.3-  1.1+  

980703 367  0.2+  0.7+    980909 610  0.4+  1.1+    990122 351  0.7-  0.1+  

980703 367  0.7+  0.4+    980909 610  0.4+  0.9+    990122 351  1.6-  1.0+  

980703 367  0.5+  0.5+    980909 610  0.3+  0.9+    990129 897  0.5-  0.3-  

980703 355  0.0   0.6+    980909 553 (4.0+  2.1-)   990129 897  0.3-  0.4-  

980703 355  0.1+  0.0     980910 402  0.4-  0.6+    990130 504  0.8-  0.9-  

980703 355  0.2+  0.9+    980910 402  0.4-  0.6+    990130 504  0.2-  0.5-  

980703 352  1.0-  0.2-    980910 402  0.5-  0.5+    990130 504  0.4-  0.5-  

980703 352  0.5+  0.0     980910 057  0.3-  0.6-    990130 504  1.0-  0.8-  

980703 402  0.5+  0.5+    980910 057  1.0+  0.6-    990130 504  0.1+  0.2+  

980703 402  0.6+  0.5+    980910 057  0.6+  0.8-    990130 504  0.1-  0.2-  

980703 402  0.4+  0.5+    980910 057  0.7+  0.8-    990204 372  0.6-  1.0-  

980703 867  0.3+  0.7+    980910 057  0.5+  1.2-    990205 372  0.5-  1.4-  

980703 867  0.3+  0.5+    980910 057  1.5-  1.5-    990207 120  0.6+  0.8-  

980703 867  0.2+  0.3+    980910 057  1.2+  1.8-    990207 120  0.1+  0.5+  

980704 355  0.1-  0.4+    980910 057  0.8+  0.4-    990207 120  0.2+  0.2+  

980704 355  0.3-  0.7+    980910 057  1.7-  0.1-    990213 372  1.1+  0.1-  

980704 355  0.4-  0.4+    980910 057  1.4-  1.4+    990214 897  0.2-  0.1-  

980704 372  0.1-  1.1+    980910 610  0.1+  0.2-    990214 897  0.8-  0.3+  

980704 900  0.1-  0.9+    980910 610  0.0   0.2-    990217 372  0.6-  0.5+  

980704 900  0.5-  0.9+    980910 610  0.0   0.2-    990219 750  0.1-  0.1-  

980704 372  0.0   1.1+    980910 610  0.1-  0.2-    990219 750  0.3-  0.1+  

980705 143  0.1+  0.3+    980910 610  0.1-  0.1-    990219 372  0.7-  0.8+  

980705 143  0.2+  0.3+    980911 057  0.1+  1.4-    990221 750  0.1+  0.5-  

980705 143  0.0   0.4+    980911 057  0.1-  0.9-    990221 750  0.1-  0.2-  

980705 143  0.2+  0.0     980911 057  1.4-  0.2-    990221 750  0.9-  1.1-  

980705 143  0.2+  0.4+    980911 057  0.5+  1.5-    990221 897  0.3+  0.5+  

980705 143  0.5-  0.6+    980911 057 (2.3+  0.1-)   990221 897  0.6+  0.2+  

980705 860 (0.2-  2.1+)   980911 057 (0.3-  2.6-)   990221 372  0.5-  0.6+  

980705 860  0.9-  1.2+    980911 057  0.1-  1.6-    990222 750  0.1-  0.5+  

980705 860  0.3+  0.6+    980911 057  0.1-  1.5-    990222 750  0.2-  0.3+  

